FW1286 Weather Reports


Display with metric or nautical units.
time (UTC)temp
F
wind
direction
speed
MPH
gust
MPH
rain 1hr
in
rain 24hr
in
rain mn
in
humidity
%
barometer
mb
20260503200639 79 188 5.0 13.0 0.00 0.00 0.00 40 1019.5
20260503195630 78 112 5.0 14.0 0.00 0.00 0.00 45 1019.6
20260503194633 78 128 6.0 14.0 0.00 0.00 0.00 38 1019.7
20260503193634 77 138 5.0 14.0 0.00 0.00 0.00 39 1019.7
20260503192631 78 191 6.0 14.0 0.00 0.00 0.00 42 1020.0
20260503191627 78 140 6.0 15.0 0.00 0.00 0.00 41 1020.1
20260503190606 77 64 6.0 15.0 0.00 0.00 0.00 42 1020.3
20260503185622 77 145 5.0 13.0 0.00 0.00 0.00 41 1020.5
20260503184607 76 148 6.0 13.0 0.00 0.00 0.00 42 1020.6
20260503183611 77 209 5.0 13.0 0.00 0.00 0.00 40 1020.7
20260503181510 77 126 6.0 15.0 0.00 0.00 0.00 40 1021.2
20260503180506 76 96 5.0 12.0 0.00 0.00 0.00 43 1021.4
20260503174330 76 64 5.0 13.0 0.00 0.00 0.00 43 1021.9
20260503173340 75 169 7.0 13.0 0.00 0.00 0.00 44 1022.0
20260503171150 75 147 5.0 10.0 0.00 0.00 0.00 43 1022.4
20260503150548 69 201 4.0 9.0 0.00 0.00 0.00 64 1023.0
20260503131239 54 76 0.0 0.0 0.00 0.00 0.00 94 1022.7
20260503130258 54 76 0.0 0.0 0.00 0.00 0.00 95 1022.7
20260503110647 48 76 0.0 0.0 0.00 0.01 0.00 93 1021.5
20260503090356 50 76 0.0 0.0 0.00 0.01 0.00 92 1021.3
20260503081340 50 76 0.0 0.0 0.00 0.01 0.00 93 1021.3
20260503080352 50 76 0.0 0.0 0.00 0.01 0.00 92 1021.4
20260503072417 51 76 0.0 0.0 0.00 0.01 0.00 91 1021.7
20260503071440 51 76 0.0 0.0 0.00 0.01 0.00 91 1021.7
20260503070409 51 76 0.0 0.0 0.00 0.01 0.00 91 1021.6
20260503060154 53 76 0.0 0.0 0.00 0.01 0.00 88 1021.9
20260503054124 53 76 0.0 0.0 0.00 0.01 0.00 88 1022.0
20260503051909 53 76 0.0 0.0 0.00 0.01 0.00 88 1022.1
20260503050916 53 76 0.0 0.0 0.00 0.01 0.00 87 1022.0
20260503045934 54 76 0.0 0.0 0.00 0.01 0.01 86 1021.9
20260503044935 54 76 0.0 0.0 0.00 0.01 0.01 86 1021.9
20260503043945 54 76 0.0 0.0 0.00 0.01 0.01 85 1021.9
20260503041841 55 76 0.0 0.0 0.00 0.01 0.01 84 1021.9
20260503040821 56 76 0.0 0.0 0.00 0.01 0.01 83 1021.9
20260503035810 56 76 0.0 0.0 0.00 0.01 0.01 82 1021.8
20260503034756 56 76 0.0 0.0 0.00 0.01 0.01 82 1021.8
20260503033811 57 76 0.0 0.0 0.00 0.01 0.01 81 1021.9
20260503032828 57 76 0.0 0.0 0.00 0.01 0.01 79 1021.6
20260503031840 57 76 0.0 0.0 0.00 0.01 0.01 81 1021.5
20260503030822 58 76 0.0 0.0 0.00 0.01 0.01 78 1021.2
20260503025748 61 76 0.0 0.0 0.00 0.01 0.01 75 1021.3
20260503024751 61 76 0.0 0.0 0.00 0.01 0.01 71 1021.2
20260503022651 62 76 1.0 3.0 0.00 0.01 0.01 69 1020.8
20260503020502 62 321 0.0 1.0 0.00 0.01 0.01 67 1020.5
20260503015459 63 321 0.0 1.0 0.00 0.01 0.01 67 1020.4
20260503014451 64 321 0.0 1.0 0.00 0.01 0.01 65 1020.5
20260503013431 64 321 0.0 1.0 0.00 0.01 0.01 64 1020.4
20260503012444 65 321 0.0 3.0 0.00 0.01 0.01 62 1020.4
20260503011503 66 321 0.0 3.0 0.00 0.01 0.01 62 1020.2
20260503010454 68 321 0.0 3.0 0.00 0.01 0.01 60 1020.1
20260503005500 70 321 0.0 1.0 0.00 0.01 0.01 58 1020.1
20260503003325 72 321 0.0 1.0 0.00 0.01 0.01 56 1019.9
20260503002330 72 321 1.0 3.0 0.00 0.01 0.01 53 1020.0
20260503001317 72 321 2.0 4.0 0.00 0.01 0.01 46 1020.0
20260503000301 72 336 4.0 7.0 0.00 0.01 0.01 48 1020.0
20260502235248 73 17 1.0 6.0 0.00 0.01 0.01 47 1019.9
20260502234221 73 296 4.0 7.0 0.00 0.01 0.01 45 1019.8
20260502233204 73 355 3.0 8.0 0.00 0.01 0.01 47 1019.9
20260502232145 73 0 3.0 8.0 0.00 0.01 0.01 46 1020.0
20260502230003 73 342 2.0 7.0 0.00 0.01 0.01 46 1019.8
20260502224936 73 5 2.0 7.0 0.00 0.01 0.01 45 1019.8
20260502223936 73 261 4.0 10.0 0.00 0.01 0.01 46 1020.0
20260502221830 73 333 3.0 9.0 0.00 0.01 0.01 47 1020.0
20260502220806 73 310 4.0 9.0 0.00 0.03 0.01 46 1020.1
20260502215742 73 300 4.0 9.0 0.00 0.04 0.01 48 1020.1
20260502214802 73 288 5.0 9.0 0.00 0.05 0.01 49 1020.2
20260502213751 73 35 3.0 8.0 0.00 0.05 0.01 51 1020.3
20260502212810 72 88 3.0 9.0 0.00 0.05 0.01 50 1020.4
20260502211757 71 337 6.0 10.0 0.00 0.05 0.01 55 1020.7
20260502210741 72 36 5.0 12.0 0.00 0.05 0.01 48 1020.7
20260502205708 73 327 5.0 12.0 0.00 0.05 0.01 50 1021.0
20260502204637 73 49 6.0 11.0 0.00 0.05 0.01 49 1021.1
20260502203655 73 338 4.0 12.0 0.00 0.05 0.01 49 1021.2
20260502202711 72 314 5.0 12.0 0.00 0.05 0.01 52 1021.2
20260502201710 72 336 7.0 11.0 0.00 0.05 0.01 47 1021.5